Regional Weather Roundup
Issued by NWS

Home | Current Version | Previous Version | Text Only | Print | Product List | Glossary Off
Versions: 1 2 3 4 5 6 7 8 9 10 11 12 13 14 15 16 17 18 19 20 21 22 23 24 25 26 27 28 29 30 31 32 33 34 35 36 37 38 39 40 41 42 43 44 45 46 47 48 49 50

000
ASUS43 KFSD 222202
RWRSD

WEATHER ROUNDUP FOR SOUTH DAKOTA
NATIONAL WEATHER SERVICE SIOUX FALLS SD
500 PM CDT TUE AUG 22 2017

NOTE: "FAIR" INDICATES FEW OR NO CLOUDS BELOW 12,000 FEET WITH NO
SIGNIFICANT WEATHER AND/OR OBSTRUCTIONS TO VISIBILITY.


SDZ001>005-009-010-012>017-222300-
NORTHWEST AND NORTH CENTRAL SOUTH DAKOTA

CITY           SKY/WX    TMP DP  RH WIND       PRES   REMARKS
BUFFALO          N/A     84  39  20 VRB5      30.07F
FAITH            N/A     81  43  26 VRB3      30.14F
MOBRIDGE       SUNNY     78  49  35 SW3       30.12F
$$

SDZ012>016-024>037-041>051-057-063-072>074-222300-
SOUTHWEST AND SOUTH CENTRAL SOUTH DAKOTA

CITY           SKY/WX    TMP DP  RH WIND       PRES   REMARKS
RAPID CTY ARPT SUNNY     84  47  27 S13G18    30.13F
PIERRE         SUNNY     79  44  28 CALM      30.13F
CUSTER         MOSUNNY   74  47  38 S9        30.27F
ELLSWORTH AFB  SUNNY     84  47  27 S12       30.13F
PHILIP         SUNNY     87  43  21 N6        30.11F
PINE RIDGE     SUNNY     84  46  26 SW8       30.16F
SPEARFISH      LGT RAIN  82  43  24 VRB7G14   30.18F
WINNER         FAIR      81  47  30 CALM      30.17F
$$

SDZ004>011-016>023-039-040-222300-
NORTHEAST SOUTH DAKOTA

CITY           SKY/WX    TMP DP  RH WIND       PRES   REMARKS
ABERDEEN       SUNNY     78  43  28 NW14      30.13F
WATERTOWN      SUNNY     72  45  37 W13G23    30.13F
BROOKINGS      SUNNY     72  47  40 NW15      30.15F
SISSETON         N/A     74  49  41 NW15G23   30.09F
$$

SDZ017-020-022-023-036>040-048>070-222300-
SOUTHEAST SOUTH DAKOTA

CITY           SKY/WX    TMP DP  RH WIND       PRES   REMARKS
SIOUX FALLS    SUNNY     76  49  38 NW13      30.15F
HURON          SUNNY     77  46  33 N15       30.14F
CHAMBERLAIN    SUNNY     78  52  40 S7        30.16F
MITCHELL       SUNNY     77  46  33 NW7       30.15F
YANKTON        SUNNY     75  48  38 NW8       30.17F
$$

ABBREVIATIONS USED IN REMARKS
   TC - TEMPERATURE IN CELSIUS
  WCI - WIND CHILL INDEX
   HX - HEAT INDEX
  VSB - VISIBILITY





USA.gov is the U.S. government's official web portal to all federal, state and local government web resources and services.